| time (UTC) | temp F | wind direction | speed MPH | gust MPH | rain 1hr in | rain 24hr in | rain mn in | humidity % | barometer mb |
| 20260506202503 | 51 | 252 | 7.0 | 16.0 | 0.00 | 1.28 | 0.63 | 75 | 1009.6 |
| 20260506202003 | 52 | 235 | 7.0 | 16.0 | 0.00 | 1.28 | 0.63 | 73 | 1009.5 |
| 20260506201503 | 52 | 232 | 6.0 | 13.0 | 0.00 | 1.28 | 0.63 | 73 | 1009.3 |
| 20260506201003 | 52 | 244 | 6.0 | 13.0 | 0.00 | 1.28 | 0.63 | 72 | 1009.3 |
| 20260506200503 | 53 | 246 | 5.0 | 13.0 | 0.00 | 1.28 | 0.63 | 71 | 1009.3 |
| 20260506200024 | 53 | 252 | 5.0 | 12.0 | 0.00 | 1.28 | 0.63 | 72 | 1009.2 |
| 20260506195503 | 53 | 260 | 6.0 | 13.0 | 0.00 | 1.28 | 0.63 | 71 | 1009.1 |
| 20260506195003 | 53 | 259 | 5.0 | 13.0 | 0.00 | 1.28 | 0.63 | 71 | 1009.2 |
| 20260506194503 | 52 | 261 | 6.0 | 13.0 | 0.00 | 1.28 | 0.63 | 73 | 1009.2 |
| 20260506194003 | 52 | 252 | 6.0 | 13.0 | 0.00 | 1.28 | 0.63 | 73 | 1009.2 |
| 20260506193503 | 52 | 243 | 4.0 | 12.0 | 0.00 | 1.28 | 0.63 | 74 | 1009.3 |
| 20260506193003 | 51 | 249 | 3.0 | 8.0 | 0.00 | 1.28 | 0.63 | 78 | 1009.2 |
| 20260506192503 | 50 | 253 | 5.0 | 10.0 | 0.00 | 1.28 | 0.63 | 77 | 1009.3 |
| 20260506192003 | 50 | 227 | 4.0 | 12.0 | 0.00 | 1.28 | 0.63 | 78 | 1009.2 |
| 20260506191524 | 50 | 192 | 2.0 | 12.0 | 0.00 | 1.28 | 0.63 | 80 | 1009.2 |
| 20260506191003 | 50 | 164 | 0.0 | 4.0 | 0.00 | 1.28 | 0.63 | 79 | 1009.2 |
| 20260506190524 | 50 | 164 | 1.0 | 4.0 | 0.00 | 1.28 | 0.63 | 80 | 1009.1 |
| 20260506190003 | 50 | 164 | 1.0 | 4.0 | 0.00 | 1.28 | 0.63 | 81 | 1009.1 |
| 20260506185503 | 50 | 165 | 1.0 | 4.0 | 0.00 | 1.28 | 0.63 | 80 | 1009.1 |
| 20260506185024 | 50 | 165 | 1.0 | 2.0 | 0.00 | 1.28 | 0.63 | 80 | 1009.1 |
| 20260506184524 | 50 | 165 | 1.0 | 4.0 | 0.00 | 1.28 | 0.63 | 80 | 1009.0 |
| 20260506184003 | 50 | 165 | 1.0 | 4.0 | 0.00 | 1.28 | 0.63 | 80 | 1009.1 |
| 20260506183503 | 50 | 166 | 1.0 | 4.0 | 0.00 | 1.28 | 0.63 | 81 | 1009.1 |
| 20260506183003 | 50 | 167 | 1.0 | 4.0 | 0.00 | 1.28 | 0.63 | 81 | 1009.2 |
| 20260506182503 | 50 | 167 | 1.0 | 4.0 | 0.00 | 1.28 | 0.63 | 82 | 1009.3 |
| 20260506182003 | 50 | 167 | 1.0 | 4.0 | 0.00 | 1.28 | 0.63 | 83 | 1009.3 |
| 20260506181503 | 49 | 167 | 1.0 | 4.0 | 0.00 | 1.28 | 0.63 | 83 | 1009.3 |
| 20260506181003 | 49 | 167 | 2.0 | 4.0 | 0.00 | 1.28 | 0.63 | 84 | 1009.3 |
| 20260506180503 | 49 | 167 | 2.0 | 4.0 | 0.00 | 1.28 | 0.63 | 85 | 1009.3 |
| 20260506180003 | 49 | 219 | 2.0 | 5.0 | 0.00 | 1.28 | 0.63 | 86 | 1009.3 |
| 20260506175524 | 49 | 283 | 1.0 | 5.0 | 0.01 | 1.28 | 0.63 | 85 | 1009.3 |
| 20260506175003 | 48 | 295 | 1.0 | 2.0 | 0.01 | 1.28 | 0.63 | 86 | 1009.3 |
| 20260506174503 | 48 | 295 | 0.0 | 2.0 | 0.01 | 1.28 | 0.63 | 87 | 1009.3 |
| 20260506174003 | 48 | 296 | 1.0 | 2.0 | 0.01 | 1.28 | 0.63 | 88 | 1009.3 |
| 20260506173503 | 48 | 296 | 1.0 | 3.0 | 0.01 | 1.28 | 0.63 | 88 | 1009.4 |
| 20260506173003 | 48 | 297 | 1.0 | 3.0 | 0.01 | 1.28 | 0.63 | 88 | 1009.3 |
| 20260506172503 | 48 | 297 | 1.0 | 3.0 | 0.01 | 1.28 | 0.63 | 88 | 1009.3 |
| 20260506172003 | 48 | 297 | 1.0 | 2.0 | 0.01 | 1.28 | 0.63 | 89 | 1009.4 |
| 20260506171503 | 48 | 297 | 0.0 | 2.0 | 0.01 | 1.28 | 0.63 | 89 | 1009.4 |
| 20260506171003 | 47 | 297 | 0.0 | 2.0 | 0.01 | 1.28 | 0.63 | 89 | 1009.4 |
| 20260506170503 | 47 | 297 | 0.0 | 2.0 | 0.01 | 1.28 | 0.63 | 88 | 1009.5 |
| 20260506170004 | 47 | 297 | 1.0 | 3.0 | 0.01 | 1.28 | 0.63 | 87 | 1009.4 |
| 20260506165524 | 48 | 297 | 1.0 | 3.0 | 0.00 | 1.27 | 0.62 | 87 | 1009.4 |
| 20260506165003 | 48 | 297 | 2.0 | 4.0 | 0.00 | 1.27 | 0.62 | 86 | 1009.2 |
| 20260506164503 | 48 | 298 | 1.0 | 4.0 | 0.00 | 1.27 | 0.62 | 85 | 1009.2 |
| 20260506164003 | 48 | 298 | 0.0 | 3.0 | 0.00 | 1.27 | 0.62 | 85 | 1009.2 |
| 20260506163503 | 49 | 5 | 0.0 | 1.0 | 0.00 | 1.27 | 0.62 | 85 | 1009.1 |
| 20260506163003 | 48 | 5 | 0.0 | 3.0 | 0.00 | 1.27 | 0.62 | 86 | 1009.0 |
| 20260506162503 | 48 | 7 | 1.0 | 3.0 | 0.00 | 1.27 | 0.62 | 86 | 1009.0 |
| 20260506162003 | 48 | 8 | 2.0 | 3.0 | 0.00 | 1.27 | 0.62 | 86 | 1008.9 |
| 20260506161503 | 48 | 7 | 2.0 | 3.0 | 0.00 | 1.27 | 0.62 | 86 | 1008.9 |
| 20260506161003 | 48 | 6 | 1.0 | 3.0 | 0.00 | 1.27 | 0.62 | 86 | 1009.1 |
| 20260506160503 | 48 | 22 | 1.0 | 3.0 | 0.00 | 1.27 | 0.62 | 87 | 1009.0 |
| 20260506160003 | 48 | 37 | 1.0 | 3.0 | 0.00 | 1.27 | 0.62 | 87 | 1009.0 |
| 20260506155503 | 48 | 37 | 1.0 | 3.0 | 0.00 | 1.27 | 0.62 | 88 | 1009.0 |
| 20260506155003 | 48 | 37 | 1.0 | 3.0 | 0.00 | 1.27 | 0.62 | 88 | 1009.1 |
| 20260506154503 | 48 | 37 | 1.0 | 3.0 | 0.00 | 1.27 | 0.62 | 88 | 1009.1 |
| 20260506154003 | 48 | 37 | 1.0 | 3.0 | 0.00 | 1.27 | 0.62 | 89 | 1008.9 |
| 20260506153503 | 48 | 37 | 1.0 | 3.0 | 0.00 | 1.27 | 0.62 | 90 | 1008.9 |
| 20260506153003 | 47 | 37 | 1.0 | 3.0 | 0.00 | 1.27 | 0.62 | 90 | 1008.9 |
| 20260506152503 | 47 | 28 | 1.0 | 5.0 | 0.00 | 1.27 | 0.62 | 90 | 1008.8 |
| 20260506152003 | 47 | 19 | 2.0 | 5.0 | 0.00 | 1.27 | 0.62 | 90 | 1008.8 |
| 20260506151503 | 47 | 9 | 2.0 | 4.0 | 0.00 | 1.27 | 0.62 | 91 | 1008.8 |
| 20260506151003 | 47 | 5 | 1.0 | 3.0 | 0.00 | 1.27 | 0.62 | 91 | 1008.8 |
| 20260506150503 | 46 | 5 | 1.0 | 3.0 | 0.00 | 1.27 | 0.62 | 91 | 1008.7 |
| 20260506150003 | 46 | 5 | 1.0 | 3.0 | 0.00 | 1.27 | 0.62 | 91 | 1008.9 |
| 20260506145524 | 46 | 5 | 2.0 | 4.0 | 0.00 | 1.27 | 0.62 | 91 | 1008.9 |
| 20260506145024 | 46 | 5 | 2.0 | 4.0 | 0.00 | 1.27 | 0.62 | 91 | 1008.7 |
| 20260506144503 | 46 | 5 | 2.0 | 4.0 | 0.00 | 1.27 | 0.62 | 91 | 1008.6 |
| 20260506144003 | 46 | 5 | 2.0 | 4.0 | 0.00 | 1.27 | 0.62 | 92 | 1008.5 |
| 20260506143503 | 46 | 5 | 2.0 | 4.0 | 0.00 | 1.27 | 0.62 | 92 | 1008.5 |
| 20260506143003 | 46 | 5 | 1.0 | 4.0 | 0.00 | 1.27 | 0.62 | 92 | 1008.6 |
| 20260506142503 | 46 | 5 | 1.0 | 4.0 | 0.00 | 1.27 | 0.62 | 92 | 1008.6 |
| 20260506142003 | 46 | 5 | 1.0 | 3.0 | 0.00 | 1.27 | 0.62 | 92 | 1008.6 |
| 20260506141503 | 46 | 2 | 1.0 | 3.0 | 0.00 | 1.27 | 0.62 | 92 | 1008.6 |
| 20260506141003 | 45 | 1 | 1.0 | 3.0 | 0.00 | 1.27 | 0.62 | 92 | 1008.5 |
| 20260506140503 | 46 | 21 | 1.0 | 3.0 | 0.00 | 1.27 | 0.62 | 92 | 1008.4 |
| 20260506140003 | 45 | 69 | 1.0 | 3.0 | 0.01 | 1.27 | 0.62 | 92 | 1008.2 |
| 20260506135503 | 46 | 106 | 1.0 | 2.0 | 0.01 | 1.27 | 0.62 | 92 | 1008.3 |
| 20260506135003 | 46 | 107 | 1.0 | 3.0 | 0.01 | 1.27 | 0.62 | 92 | 1008.2 |
| 20260506134503 | 46 | 108 | 1.0 | 3.0 | 0.01 | 1.27 | 0.62 | 92 | 1008.1 |
| 20260506134024 | 46 | 108 | 1.0 | 4.0 | 0.01 | 1.27 | 0.62 | 92 | 1008.1 |
| 20260506133503 | 45 | 108 | 1.0 | 4.0 | 0.02 | 1.27 | 0.62 | 92 | 1008.0 |
| 20260506133003 | 45 | 108 | 1.0 | 4.0 | 0.02 | 1.27 | 0.62 | 92 | 1008.0 |
| 20260506132503 | 45 | 108 | 1.0 | 3.0 | 0.02 | 1.27 | 0.62 | 92 | 1007.9 |
| 20260506132024 | 45 | 108 | 1.0 | 3.0 | 0.03 | 1.27 | 0.62 | 92 | 1008.0 |
| 20260506131503 | 45 | 108 | 0.0 | 3.0 | 0.03 | 1.27 | 0.62 | 92 | 1008.1 |
| 20260506131003 | 45 | 108 | 1.0 | 4.0 | 0.03 | 1.27 | 0.62 | 92 | 1008.1 |
| 20260506130524 | 45 | 101 | 1.0 | 4.0 | 0.03 | 1.27 | 0.62 | 92 | 1008.0 |
| 20260506130003 | 45 | 76 | 1.0 | 4.0 | 0.02 | 1.26 | 0.61 | 92 | 1008.1 |
| 20260506125503 | 45 | 73 | 1.0 | 3.0 | 0.02 | 1.26 | 0.61 | 92 | 1007.8 |
| 20260506125003 | 45 | 82 | 1.0 | 4.0 | 0.02 | 1.26 | 0.61 | 92 | 1007.8 |
| 20260506124503 | 44 | 99 | 1.0 | 4.0 | 0.02 | 1.26 | 0.61 | 92 | 1007.7 |
| 20260506124003 | 44 | 111 | 1.0 | 3.0 | 0.03 | 1.26 | 0.61 | 92 | 1007.8 |
| 20260506123503 | 44 | 110 | 1.0 | 4.0 | 0.02 | 1.25 | 0.60 | 92 | 1007.9 |
| 20260506123003 | 44 | 107 | 2.0 | 4.0 | 0.02 | 1.25 | 0.60 | 92 | 1007.8 |
| 20260506122503 | 44 | 100 | 1.0 | 4.0 | 0.02 | 1.25 | 0.60 | 92 | 1007.9 |
| 20260506122003 | 44 | 88 | 1.0 | 6.0 | 0.02 | 1.24 | 0.59 | 92 | 1007.7 |
| 20260506121524 | 44 | 87 | 2.0 | 7.0 | 0.02 | 1.24 | 0.59 | 92 | 1007.7 |
| 20260506121003 | 44 | 81 | 2.0 | 7.0 | 0.03 | 1.24 | 0.59 | 92 | 1007.6 |
| 20260506120503 | 44 | 75 | 2.0 | 7.0 | 0.03 | 1.24 | 0.59 | 92 | 1007.6 |
| 20260506120003 | 44 | 69 | 2.0 | 7.0 | 0.03 | 1.24 | 0.59 | 92 | 1007.4 |
| 20260506115503 | 44 | 88 | 2.0 | 6.0 | 0.04 | 1.24 | 0.59 | 92 | 1007.4 |
| 20260506115024 | 44 | 102 | 2.0 | 6.0 | 0.04 | 1.24 | 0.59 | 92 | 1007.6 |
| 20260506114503 | 44 | 97 | 2.0 | 7.0 | 0.04 | 1.24 | 0.59 | 92 | 1007.6 |
| 20260506114003 | 44 | 97 | 3.0 | 7.0 | 0.04 | 1.23 | 0.58 | 92 | 1007.7 |
| 20260506113503 | 44 | 74 | 2.0 | 6.0 | 0.04 | 1.23 | 0.58 | 92 | 1007.7 |
| 20260506113003 | 45 | 43 | 3.0 | 8.0 | 0.05 | 1.23 | 0.58 | 92 | 1007.6 |
| 20260506112503 | 45 | 31 | 3.0 | 8.0 | 0.05 | 1.23 | 0.58 | 92 | 1007.6 |
| 20260506112003 | 45 | 45 | 3.0 | 10.0 | 0.04 | 1.22 | 0.57 | 92 | 1007.5 |
| 20260506111503 | 45 | 52 | 3.0 | 10.0 | 0.05 | 1.22 | 0.57 | 92 | 1007.7 |
| 20260506111003 | 45 | 32 | 3.0 | 7.0 | 0.04 | 1.21 | 0.56 | 92 | 1007.9 |
| 20260506110503 | 45 | 16 | 2.0 | 7.0 | 0.05 | 1.21 | 0.56 | 92 | 1007.9 |
| 20260506110003 | 45 | 15 | 2.0 | 7.0 | 0.05 | 1.21 | 0.56 | 93 | 1007.9 |
| 20260506105503 | 45 | 14 | 2.0 | 7.0 | 0.05 | 1.20 | 0.55 | 93 | 1007.3 |
| 20260506105003 | 45 | 28 | 2.0 | 4.0 | 0.05 | 1.20 | 0.55 | 93 | 1007.4 |
| 20260506104503 | 45 | 45 | 2.0 | 8.0 | 0.06 | 1.20 | 0.55 | 93 | 1007.3 |
| 20260506104003 | 45 | 51 | 2.0 | 8.0 | 0.05 | 1.19 | 0.54 | 93 | 1007.2 |
| 20260506103503 | 45 | 56 | 2.0 | 6.0 | 0.06 | 1.19 | 0.54 | 93 | 1007.3 |
| 20260506103003 | 45 | 64 | 2.0 | 9.0 | 0.05 | 1.18 | 0.53 | 93 | 1007.2 |
| 20260506102503 | 45 | 60 | 3.0 | 9.0 | 0.06 | 1.18 | 0.53 | 93 | 1007.1 |
| 20260506102003 | 45 | 49 | 3.0 | 8.0 | 0.07 | 1.18 | 0.53 | 92 | 1006.9 |
| 20260506101503 | 45 | 36 | 2.0 | 8.0 | 0.06 | 1.17 | 0.52 | 93 | 1007.0 |
| 20260506101024 | 45 | 24 | 2.0 | 8.0 | 0.07 | 1.17 | 0.52 | 92 | 1007.3 |
| 20260506100524 | 45 | 13 | 2.0 | 4.0 | 0.07 | 1.16 | 0.51 | 92 | 1007.6 |
| 20260506100003 | 45 | 15 | 2.0 | 5.0 | 0.08 | 1.16 | 0.51 | 93 | 1007.7 |
| 20260506095503 | 45 | 10 | 2.0 | 6.0 | 0.08 | 1.15 | 0.50 | 93 | 1007.8 |
| 20260506095003 | 45 | 352 | 3.0 | 6.0 | 0.09 | 1.15 | 0.50 | 93 | 1007.9 |
| 20260506094503 | 45 | 358 | 3.0 | 11.0 | 0.08 | 1.14 | 0.49 | 93 | 1008.0 |
| 20260506094003 | 45 | 13 | 3.0 | 11.0 | 0.09 | 1.14 | 0.49 | 93 | 1007.8 |
| 20260506093503 | 46 | 9 | 2.0 | 9.0 | 0.09 | 1.13 | 0.48 | 93 | 1007.7 |
| 20260506093003 | 46 | 10 | 2.0 | 5.0 | 0.10 | 1.13 | 0.48 | 93 | 1007.6 |
| 20260506092503 | 46 | 18 | 1.0 | 4.0 | 0.10 | 1.12 | 0.47 | 93 | 1007.4 |
| 20260506092003 | 46 | 1 | 1.0 | 4.0 | 0.09 | 1.11 | 0.46 | 93 | 1007.5 |
| 20260506091503 | 46 | 8 | 2.0 | 4.0 | 0.10 | 1.11 | 0.46 | 93 | 1007.5 |
| 20260506091024 | 46 | 29 | 2.0 | 5.0 | 0.09 | 1.10 | 0.45 | 93 | 1007.4 |
| 20260506090503 | 46 | 8 | 2.0 | 7.0 | 0.08 | 1.09 | 0.44 | 93 | 1007.5 |
| 20260506090003 | 46 | 354 | 2.0 | 6.0 | 0.08 | 1.08 | 0.43 | 93 | 1007.4 |
| 20260506085503 | 46 | 35 | 3.0 | 8.0 | 0.07 | 1.07 | 0.42 | 93 | 1007.6 |
| 20260506085003 | 46 | 60 | 3.0 | 9.0 | 0.06 | 1.06 | 0.41 | 93 | 1007.3 |
| 20260506084524 | 47 | 61 | 3.0 | 9.0 | 0.07 | 1.06 | 0.41 | 93 | 1007.4 |
| 20260506084024 | 47 | 43 | 2.0 | 8.0 | 0.06 | 1.05 | 0.40 | 93 | 1007.3 |
| 20260506083503 | 47 | 34 | 3.0 | 7.0 | 0.05 | 1.04 | 0.39 | 93 | 1007.3 |
| 20260506083003 | 47 | 36 | 2.0 | 6.0 | 0.05 | 1.03 | 0.38 | 93 | 1007.3 |
| 20260506082503 | 47 | 33 | 2.0 | 5.0 | 0.04 | 1.02 | 0.37 | 93 | 1007.3 |
| 20260506082003 | 47 | 31 | 1.0 | 3.0 | 0.04 | 1.02 | 0.37 | 93 | 1007.4 |
| 20260506081524 | 47 | 30 | 1.0 | 4.0 | 0.04 | 1.01 | 0.36 | 93 | 1007.4 |
| 20260506081003 | 47 | 28 | 2.0 | 6.0 | 0.04 | 1.01 | 0.36 | 93 | 1007.3 |
| 20260506080524 | 47 | 26 | 2.0 | 6.0 | 0.05 | 1.01 | 0.36 | 93 | 1007.4 |
| 20260506073503 | 47 | 26 | 2.0 | 4.0 | 0.07 | 0.99 | 0.34 | 93 | 1007.3 |
| 20260506073003 | 47 | 26 | 1.0 | 4.0 | 0.08 | 0.98 | 0.33 | 93 | 1007.4 |
| 20260506072524 | 47 | 26 | 1.0 | 4.0 | 0.08 | 0.98 | 0.33 | 93 | 1007.4 |
| 20260506072003 | 47 | 25 | 2.0 | 4.0 | 0.09 | 0.98 | 0.33 | 93 | 1007.4 |
| 20260506071503 | 47 | 22 | 1.0 | 4.0 | 0.09 | 0.97 | 0.32 | 93 | 1007.4 |
| 20260506071003 | 47 | 20 | 1.0 | 4.0 | 0.09 | 0.97 | 0.32 | 93 | 1007.4 |
| 20260506070503 | 47 | 17 | 1.0 | 4.0 | 0.09 | 0.96 | 0.31 | 93 | 1007.8 |
| 20260506062503 | 48 | 21 | 2.0 | 5.0 | 0.08 | 0.90 | 0.25 | 93 | 1008.0 |
| 20260506062003 | 48 | 16 | 2.0 | 5.0 | 0.08 | 0.89 | 0.24 | 93 | 1007.7 |
| 20260506061503 | 48 | 14 | 1.0 | 4.0 | 0.08 | 0.88 | 0.23 | 93 | 1007.5 |
| 20260506061003 | 48 | 13 | 1.0 | 4.0 | 0.09 | 0.88 | 0.23 | 93 | 1007.6 |
| 20260506060503 | 48 | 13 | 1.0 | 4.0 | 0.09 | 0.87 | 0.22 | 93 | 1007.7 |
| 20260506051003 | 48 | 141 | 1.0 | 2.0 | 0.13 | 0.99 | 0.14 | 92 | 1008.8 |
| 20260506050503 | 48 | 140 | 1.0 | 2.0 | 0.13 | 0.98 | 0.13 | 92 | 1008.9 |
| 20260506045003 | 48 | 142 | 0.0 | 2.0 | 0.10 | 0.94 | 0.09 | 92 | 1008.5 |
| 20260506044503 | 48 | 142 | 0.0 | 2.0 | 0.09 | 0.93 | 0.08 | 92 | 1008.3 |
| 20260506044003 | 48 | 145 | 0.0 | 2.0 | 0.09 | 0.92 | 0.07 | 92 | 1008.4 |
| 20260506043503 | 48 | 145 | 0.0 | 2.0 | 0.08 | 0.91 | 0.06 | 92 | 1008.3 |
| 20260506043003 | 48 | 145 | 0.0 | 2.0 | 0.08 | 0.90 | 0.05 | 92 | 1008.3 |
| 20260506042503 | 48 | 145 | 0.0 | 2.0 | 0.07 | 0.89 | 0.04 | 92 | 1008.3 |
| 20260506042024 | 48 | 145 | 0.0 | 2.0 | 0.06 | 0.88 | 0.03 | 92 | 1008.3 |
| 20260506041503 | 48 | 145 | 0.0 | 2.0 | 0.06 | 0.87 | 0.02 | 92 | 1008.3 |
| 20260506041003 | 49 | 145 | 0.0 | 3.0 | 0.06 | 0.86 | 0.01 | 92 | 1008.4 |
| 20260506040503 | 48 | 145 | 0.0 | 3.0 | 0.05 | 0.85 | 0.00 | 92 | 1008.5 |
| 20260506040004 | 49 | 146 | 0.0 | 3.0 | 0.06 | 0.85 | 0.00 | 92 | 1008.4 |
| 20260506035503 | 48 | 146 | 0.0 | 3.0 | 0.07 | 0.85 | 0.85 | 92 | 1008.3 |
| 20260506035004 | 49 | 147 | 0.0 | 3.0 | 0.07 | 0.84 | 0.84 | 92 | 1008.3 |
| 20260506034503 | 49 | 147 | 1.0 | 2.0 | 0.08 | 0.84 | 0.84 | 92 | 1008.2 |
| 20260506034024 | 49 | 150 | 1.0 | 3.0 | 0.08 | 0.83 | 0.83 | 92 | 1008.1 |
| 20260506033503 | 49 | 152 | 1.0 | 3.0 | 0.08 | 0.83 | 0.83 | 92 | 1008.0 |
| 20260506033004 | 49 | 155 | 1.0 | 2.0 | 0.08 | 0.82 | 0.82 | 92 | 1008.1 |
| 20260506032504 | 49 | 155 | 0.0 | 2.0 | 0.08 | 0.82 | 0.82 | 92 | 1008.2 |
| 20260506032003 | 49 | 187 | 0.0 | 3.0 | 0.08 | 0.82 | 0.82 | 92 | 1008.3 |
| 20260506031503 | 49 | 187 | 0.0 | 3.0 | 0.07 | 0.81 | 0.81 | 92 | 1008.3 |
| 20260506031003 | 49 | 214 | 0.0 | 1.0 | 0.07 | 0.80 | 0.80 | 92 | 1008.6 |
| 20260506030524 | 49 | 214 | 0.0 | 1.0 | 0.07 | 0.80 | 0.80 | 92 | 1008.7 |
| 20260506030003 | 49 | 214 | 0.0 | 1.0 | 0.06 | 0.79 | 0.79 | 92 | 1008.6 |
| 20260506025503 | 49 | 214 | 0.0 | 2.0 | 0.05 | 0.78 | 0.78 | 92 | 1008.7 |
| 20260506025003 | 49 | 214 | 0.0 | 2.0 | 0.04 | 0.77 | 0.77 | 92 | 1008.8 |
| 20260506024503 | 49 | 214 | 0.0 | 1.0 | 0.03 | 0.76 | 0.76 | 92 | 1008.8 |
| 20260506024003 | 49 | 0 | 0.0 | 0.0 | 0.02 | 0.75 | 0.75 | 92 | 1008.9 |
| 20260506023524 | 49 | 0 | 0.0 | 0.0 | 0.03 | 0.75 | 0.75 | 92 | 1009.0 |
| 20260506023003 | 49 | 0 | 0.0 | 0.0 | 0.02 | 0.74 | 0.74 | 92 | 1009.0 |
| 20260506022524 | 49 | 214 | 0.0 | 1.0 | 0.02 | 0.74 | 0.74 | 92 | 1008.9 |
| 20260506022003 | 49 | 214 | 0.0 | 1.0 | 0.03 | 0.74 | 0.74 | 92 | 1008.8 |
| 20260506021503 | 49 | 214 | 0.0 | 1.0 | 0.03 | 0.74 | 0.74 | 92 | 1009.0 |
| 20260506021004 | 49 | 214 | 0.0 | 1.0 | 0.02 | 0.73 | 0.73 | 91 | 1009.1 |
| 20260506020503 | 49 | 0 | 0.0 | 0.0 | 0.03 | 0.73 | 0.73 | 91 | 1008.8 |
| 20260506020024 | 49 | 0 | 0.0 | 0.0 | 0.03 | 0.73 | 0.73 | 91 | 1008.8 |
| 20260506015503 | 49 | 0 | 0.0 | 0.0 | 0.04 | 0.73 | 0.73 | 91 | 1008.8 |
| 20260506015003 | 49 | 0 | 0.0 | 0.0 | 0.04 | 0.73 | 0.73 | 91 | 1008.7 |
| 20260506014503 | 49 | 214 | 0.0 | 3.0 | 0.05 | 0.73 | 0.73 | 91 | 1008.7 |
| 20260506014003 | 49 | 214 | 0.0 | 3.0 | 0.06 | 0.73 | 0.73 | 91 | 1008.8 |
| 20260506013503 | 49 | 214 | 0.0 | 2.0 | 0.06 | 0.72 | 0.72 | 91 | 1008.9 |
| 20260506013024 | 49 | 214 | 0.0 | 3.0 | 0.07 | 0.72 | 0.72 | 91 | 1009.1 |
| 20260506012503 | 49 | 214 | 0.0 | 3.0 | 0.08 | 0.72 | 0.72 | 91 | 1009.1 |
| 20260506012004 | 49 | 214 | 0.0 | 2.0 | 0.08 | 0.71 | 0.71 | 91 | 1009.2 |
| 20260506011503 | 49 | 0 | 0.0 | 0.0 | 0.08 | 0.71 | 0.71 | 91 | 1008.9 |
| 20260506011003 | 49 | 214 | 0.0 | 1.0 | 0.08 | 0.71 | 0.71 | 91 | 1008.9 |
| 20260506010503 | 49 | 214 | 0.0 | 1.0 | 0.08 | 0.70 | 0.70 | 91 | 1008.9 |
| 20260506010003 | 49 | 0 | 0.0 | 0.0 | 0.09 | 0.70 | 0.70 | 91 | 1008.9 |
| 20260506005503 | 49 | 0 | 0.0 | 0.0 | 0.08 | 0.69 | 0.69 | 91 | 1008.9 |
| 20260506005024 | 49 | 214 | 0.0 | 1.0 | 0.09 | 0.69 | 0.69 | 91 | 1008.9 |
| 20260506004504 | 49 | 214 | 0.0 | 2.0 | 0.08 | 0.68 | 0.68 | 91 | 1008.8 |
| 20260506004003 | 49 | 214 | 1.0 | 2.0 | 0.08 | 0.67 | 0.67 | 91 | 1009.0 |
| 20260506003503 | 49 | 214 | 1.0 | 3.0 | 0.08 | 0.66 | 0.66 | 91 | 1009.0 |
| 20260506003003 | 49 | 210 | 1.0 | 5.0 | 0.08 | 0.65 | 0.65 | 90 | 1008.8 |
| 20260506002503 | 49 | 200 | 1.0 | 5.0 | 0.07 | 0.64 | 0.64 | 90 | 1009.0 |
| 20260506002003 | 49 | 175 | 1.0 | 4.0 | 0.07 | 0.63 | 0.63 | 91 | 1008.7 |
| 20260506001503 | 49 | 173 | 0.0 | 4.0 | 0.07 | 0.63 | 0.63 | 90 | 1008.7 |
| 20260506001024 | 49 | 0 | 0.0 | 0.0 | 0.08 | 0.63 | 0.63 | 91 | 1008.8 |
| 20260506000503 | 49 | 0 | 0.0 | 0.0 | 0.07 | 0.62 | 0.62 | 91 | 1008.6 |
| 20260506000025 | 49 | 0 | 0.0 | 0.0 | 0.07 | 0.61 | 0.61 | 91 | 1008.3 |
| 20260505235503 | 49 | 0 | 0.0 | 0.0 | 0.08 | 0.61 | 0.61 | 90 | 1008.1 |
| 20260505235003 | 49 | 0 | 0.0 | 0.0 | 0.08 | 0.60 | 0.60 | 90 | 1008.6 |
| 20260505234503 | 49 | 0 | 0.0 | 0.0 | 0.09 | 0.60 | 0.60 | 90 | 1008.4 |
| 20260505234003 | 49 | 244 | 0.0 | 2.0 | 0.09 | 0.59 | 0.59 | 90 | 1008.2 |
| 20260505233503 | 49 | 244 | 0.0 | 2.0 | 0.09 | 0.58 | 0.58 | 90 | 1008.2 |
| 20260505233003 | 49 | 244 | 0.0 | 1.0 | 0.09 | 0.57 | 0.57 | 90 | 1008.3 |
| 20260505232003 | 49 | 244 | 0.0 | 3.0 | 0.10 | 0.56 | 0.56 | 90 | 1007.9 |
| 20260505231503 | 49 | 244 | 0.0 | 2.0 | 0.12 | 0.56 | 0.56 | 90 | 1007.9 |
| 20260505231003 | 49 | 244 | 0.0 | 3.0 | 0.13 | 0.55 | 0.55 | 90 | 1008.0 |
| 20260505230503 | 49 | 262 | 1.0 | 4.0 | 0.14 | 0.55 | 0.55 | 90 | 1008.2 |
| 20260505230024 | 49 | 278 | 1.0 | 4.0 | 0.14 | 0.54 | 0.54 | 90 | 1008.3 |
| 20260505225504 | 49 | 318 | 1.0 | 5.0 | 0.14 | 0.53 | 0.53 | 90 | 1008.2 |
| 20260505225003 | 49 | 321 | 2.0 | 8.0 | 0.15 | 0.52 | 0.52 | 90 | 1008.1 |
| 20260505224503 | 49 | 332 | 2.0 | 8.0 | 0.15 | 0.51 | 0.51 | 90 | 1008.2 |
| 20260505224003 | 50 | 336 | 2.0 | 5.0 | 0.16 | 0.50 | 0.50 | 90 | 1008.2 |
| 20260505223524 | 50 | 331 | 2.0 | 5.0 | 0.16 | 0.49 | 0.49 | 90 | 1008.0 |
| 20260505223003 | 50 | 317 | 2.0 | 6.0 | 0.16 | 0.48 | 0.48 | 89 | 1008.0 |
| 20260505222503 | 51 | 282 | 3.0 | 11.0 | 0.16 | 0.47 | 0.47 | 89 | 1008.1 |
| 20260505222003 | 51 | 267 | 4.0 | 13.0 | 0.16 | 0.46 | 0.46 | 90 | 1008.1 |
| 20260505221524 | 51 | 266 | 5.0 | 13.0 | 0.16 | 0.44 | 0.44 | 90 | 1008.3 |
| 20260505221003 | 52 | 271 | 5.0 | 10.0 | 0.16 | 0.42 | 0.42 | 89 | 1008.0 |
| 20260505220503 | 52 | 272 | 5.0 | 10.0 | 0.16 | 0.41 | 0.41 | 89 | 1008.1 |
| 20260505220004 | 52 | 266 | 4.0 | 9.0 | 0.16 | 0.40 | 0.40 | 90 | 1007.8 |
| 20260505215503 | 53 | 252 | 4.0 | 12.0 | 0.16 | 0.39 | 0.39 | 90 | 1007.7 |
| 20260505215003 | 53 | 246 | 4.0 | 12.0 | 0.14 | 0.37 | 0.37 | 89 | 1007.8 |
| 20260505214503 | 53 | 243 | 4.0 | 10.0 | 0.15 | 0.36 | 0.36 | 89 | 1007.7 |
| 20260505214003 | 53 | 232 | 4.0 | 10.0 | 0.13 | 0.34 | 0.34 | 89 | 1007.5 |
| 20260505213503 | 53 | 227 | 4.0 | 10.0 | 0.13 | 0.33 | 0.33 | 89 | 1007.5 |
| 20260505213003 | 53 | 236 | 5.0 | 11.0 | 0.12 | 0.32 | 0.32 | 88 | 1007.4 |
| 20260505212503 | 53 | 241 | 5.0 | 14.0 | 0.11 | 0.31 | 0.31 | 88 | 1007.5 |
| 20260505212003 | 53 | 244 | 5.0 | 14.0 | 0.10 | 0.30 | 0.30 | 88 | 1007.4 |
| 20260505211503 | 54 | 238 | 5.0 | 13.0 | 0.08 | 0.28 | 0.28 | 87 | 1007.4 |
| 20260505211003 | 54 | 235 | 5.0 | 11.0 | 0.06 | 0.26 | 0.26 | 87 | 1007.3 |
| 20260505210503 | 54 | 235 | 5.0 | 12.0 | 0.05 | 0.25 | 0.25 | 87 | 1007.2 |
| 20260505210003 | 54 | 236 | 5.0 | 12.0 | 0.04 | 0.24 | 0.24 | 86 | 1007.1 |
| 20260505205503 | 54 | 232 | 5.0 | 12.0 | 0.03 | 0.23 | 0.23 | 86 | 1006.9 |
| 20260505205024 | 55 | 231 | 5.0 | 14.0 | 0.03 | 0.23 | 0.23 | 85 | 1006.7 |
| 20260505204503 | 55 | 238 | 5.0 | 14.0 | 0.01 | 0.21 | 0.21 | 84 | 1006.7 |
| 20260505204003 | 55 | 235 | 5.0 | 11.0 | 0.01 | 0.21 | 0.21 | 84 | 1006.5 |
| 20260505203503 | 56 | 229 | 4.0 | 14.0 | 0.00 | 0.20 | 0.20 | 83 | 1006.3 |
| 20260505203003 | 56 | 221 | 5.0 | 14.0 | 0.00 | 0.20 | 0.20 | 83 | 1006.2 |